This demonstration page uses our WeatherBlox Daily Observations layout. Learn more.

Left ArrowRight Arrow

Hourly Observations for February 26, 2022

Temp ( °F °C ) Dew Point ( °F °C ) Humidity (%) Winds ( mph kmh ) Pressure ( in mb ) Visibility ( mi km ) Precip ( " mm )
12:53 am 00:53 Clear 18 -7.8 7 -13.9 62 62 SW 22 35 30.23 1024 10 16 0.00 0.00
1:53 am 01:53 Clear 17 -8.3 7 -13.9 64 64 SW 20 31 30.25 1025 10 16 0.00 0.00
2:53 am 02:53 Clear 14 -10 5 -15 67 67 SW 21 33 30.24 1024 10 16 0.00 0.00
3:53 am 03:53 Clear 15 -9.4 6 -14.4 67 67 SW 24 39 30.24 1024 10 16 0.00 0.00
4:53 am 04:53 Clear 19 -7.2 7 -13.9 59 59 SW 23 37 30.25 1024 10 16 0.00 0.00
5:53 am 05:53 Clear 19 -7.2 8 -13.3 62 62 SW 22 35 30.26 1025 10 16 0.00 0.00
6:53 am 06:53 Clear 20 -6.7 9 -12.8 62 62 SW 20 31 30.28 1025 10 16 0.00 0.00
7:53 am 07:53 Sunny 21 -6.1 10 -12.2 62 62 SW 18 30 30.31 1026 10 16 0.00 0.00
8:53 am 08:53 Sunny 24 -4.4 12 -11.1 60 60 SW 22 35 30.30 1026 10 16 0.00 0.00
9:53 am 09:53 Sunny 26 -3.3 14 -10 60 60 SW 22 35 30.31 1026 10 16 0.00 0.00
10:53 am 10:53 Sunny 29 -1.7 15 -9.4 56 56 SW 25 41 30.30 1026 10 16 0.00 0.00
11:53 am 11:53 Sunny 33 0.6 18 -7.8 54 54 SW 24 39 30.27 1025 10 16 0.00 0.00
12:53 pm 12:53 Sunny 35 1.7 19 -7.2 52 52 SW 23 37 30.23 1024 10 16 0.00 0.00
1:53 pm 13:53 Sunny 38 3.3 21 -6.1 51 51 SW 23 37 30.20 1023 10 16 0.00 0.00
2:53 pm 14:53 Sunny 38 3.3 21 -6.1 51 51 SW 24 39 30.16 1022 10 16 0.00 0.00
3:53 pm 15:53 Sunny 41 5 22 -5.6 47 47 WSW 21 33 30.18 1022 10 16 0.00 0.00
4:53 pm 16:53 Sunny 39 3.9 22 -5.6 50 50 SW 21 33 30.14 1021 10 16 0.00 0.00
5:53 pm 17:53 Sunny 36 2.2 21 -6.1 55 55 SW 18 30 30.14 1021 10 16 0.00 0.00
6:53 pm 18:53 Clear 37 2.8 20 -6.7 50 50 SW 23 37 30.12 1020 10 16 0.00 0.00
7:53 pm 19:53 Clear 36 2.2 19 -7.2 50 50 SW 22 35 30.11 1020 10 16 0.00 0.00
8:53 pm 20:53 Clear 35 1.7 18 -7.8 50 50 SW 23 37 30.11 1020 10 16 0.00 0.00
9:53 pm 21:53 Clear 32 0 17 -8.3 54 54 SW 16 26 30.12 1020 10 16 0.00 0.00
10:53 pm 22:53 Clear 32 0 17 -8.3 54 54 SW 18 30 30.11 1020 10 16 0.00 0.00
11:53 pm 23:53 Clear 32 0 17 -8.3 54 54 SW 20 31 30.10 1019 10 16 0.00 0.00

Powered by AerisWeather